Location: Cantaing
(50.1487°N, 3.1675°E)
Time: 08:23:39
(UTC+00:00)

BlueWalker 3 - Visible Passes

Search period start: 12 March 2026 00:00
Search period end: 22 March 2026 00:00
Orbit: 451 x 458 km, 53.2° (Epoch: 11 March)

Date Brightness Start Highest point End Pass type
(mag) Time Alt. Az. Time Alt. Az. Time Alt. Az.
12 Mar 2.2 03:49:12 55° NNE 03:49:12 55° NNE 03:52:41 10° E visible
12 Mar 1.9 05:23:05 10° WNW 05:26:38 58° SSW 05:30:10 10° SE visible
13 Mar 3.7 03:14:27 29° ENE 03:14:27 29° ENE 03:16:27 10° E visible
13 Mar 1.7 04:48:08 20° WNW 04:50:29 71° SSW 04:54:04 10° ESE visible
14 Mar 4.9 02:39:46 13° ENE 02:39:46 13° ENE 02:40:13 10° E visible
14 Mar 1.6 04:13:28 50° WNW 04:14:19 83° SSW 04:17:55 10° ESE visible
15 Mar 2.3 03:38:52 54° ESE 03:38:52 54° ESE 03:41:44 10° ESE visible
15 Mar 3.0 05:12:34 12° W 05:15:17 25° SW 05:18:16 10° SSE visible
16 Mar 4.2 03:04:24 19° ESE 03:04:24 19° ESE 03:05:31 10° ESE visible
16 Mar 2.6 04:38:06 25° WSW 04:39:10 31° SW 04:42:22 10° SSE visible
17 Mar 2.6 04:03:47 33° S 04:03:47 33° S 04:06:23 10° SE visible
18 Mar 4.2 03:29:40 14° SE 03:29:40 14° SE 03:30:19 10° SE visible
